User: anonymous   Login
Location: Martz Observatory
(42.0083°N, 79.0667°W)
Time: 22:44:09
(UTC-04:00)
Language:

Cosmos 1315 Rocket - Orbit

View from above orbital plane
View from above orbital plane
View from above satellite
View from above satellite

Ground track
Ground track

The orbit data is extracted from the following two-line orbital elements,

1 12904U 81103B   19112.19194804  .00000837  00000-0  55916-4 0  9997
2 12904  81.1784 225.5583 0028491   8.9488 351.2236 15.05644850594231
Epoch (UTC): 22 April 2019 04:36:24
Eccentricity: 0.0028491
inclination: 81.1784°
perigee height: 530 km
apogee height: 569 km
right ascension of ascending node: 225.5583°
argument of perigee: 8.9488°
revolutions per day: 15.05644850
mean anomaly at epoch: 351.2236°
orbit number at epoch: 59423

The dashed part of the orbit path shows where the satellite is in the earth's shadow,  

DLR